[[{"header":{"parameterUnit":"m.s-1","parameterCategory":1,"la1":30.2992,"la2":30.254,"lo1":-89.0895,"lo2":-89.0443,"dy":0.0025,"dx":0.0025,"nx":19,"ny":19,"refTime":"2026-04-07T21:00:00:Z","depth":0,"parameterNumber":2,"parameterNumberName":"U-component_of_WINDS"},"data":[0,0,0,-7.5887,-7.589,-7.5972,-7.5972,-7.6107,-7.6109,0,0,0,0,0,0,0,0,0,0,0,-7.5883,-7.5884,-7.5887,-7.589,-7.5972,-7.5972,-7.6107,-7.6109,0,0,0,0,0,0,0,0,0,0,0,-7.5882,-7.5884,-7.5886,-7.589,-7.5972,-7.5972,-7.6106,-7.6033,0,0,0,0,0,0,0,0,0,0,-7.5949,-7.5963,-7.5883,-7.5886,-7.5891,-7.5972,-7.5972,-7.6029,-7.6038,-7.6083,0,-7.613,0,-7.6122,-7.612,-7.612,0,0,0,-7.5875,-7.5956,-7.5961,-7.5886,-7.5892,-7.5972,-7.5931,-7.6034,-7.6044,-7.6095,-7.6131,-7.6135,-7.6124,-7.6121,-7.6122,-7.6435,-7.6438,0,0,-7.587,-7.5907,-7.5955,-7.5968,-7.5959,-7.5928,-7.5933,-7.6039,-7.6081,-7.6132,-7.6138,-7.6126,-7.6122,-7.6123,-7.6433,-7.6436,0,0,0,-7.5868,-7.5905,-7.5906,-7.5964,-7.5976,-7.5931,-7.5937,-7.6076,-7.6073,-7.6139,-7.6128,-7.6123,-7.6125,-7.6431,-7.6434,-7.6577,0,0,0,-7.5864,-7.5903,-7.5905,-7.5928,-7.5975,-7.6027,-7.5972,-7.6066,-7.6077,-7.6127,-7.6123,-7.6126,-7.6428,-7.6433,-7.6568,-7.6637,0,0,0,-7.587,-7.5903,-7.5922,-7.593,-7.5967,-7.6025,-7.6028,-7.6068,-7.6071,-7.612,-7.6127,-7.6427,-7.6432,-7.6559,-7.6624,-7.673,0,0,0,-7.5887,-7.6047,-7.5925,-7.6099,-7.5967,-7.6114,-7.6027,-7.6134,-7.6193,-7.6124,-7.6429,-7.6434,-7.6557,-7.6615,-7.6722,-7.6825,-7.6872,0,0,-7.6109,-7.6075,-7.6174,-7.6067,-7.6246,-7.6098,-7.6296,-7.6315,-7.6286,-7.6387,-7.6394,-7.6571,-7.6623,-7.6728,-7.7126,-7.7164,0,0,0,-7.6256,-7.6328,-7.6367,-7.6427,-7.6447,-7.6469,-7.6454,-7.6462,-7.6546,-7.6346,-7.6637,-7.6667,-7.6728,-7.6775,-7.6807,-7.6856,-7.6458,-7.6458,-7.6457,-7.662,-7.6576,-7.6737,-7.6703,-7.6762,-7.6747,-7.679,-7.6797,-7.6733,-7.6804,-7.6832,-7.708,-7.7137,-7.7161,-7.7212,-7.6885,-7.6886,-7.6886,-7.6886,-7.6939,-7.7032,-7.6948,-7.7073,-7.7026,-7.713,-7.7123,-7.7075,-7.7164,-7.7054,-7.7104,-7.6986,-7.7203,-7.7246,-7.6897,-7.6895,-7.6894,-7.6893,-7.6892,-7.717,-7.7207,-7.7215,-7.7298,-7.7367,-7.7327,-7.7418,-7.7371,-7.7328,-7.7378,-7.7403,-7.7401,-7.7391,-7.7394,-7.7395,-7.7396,-7.7397,-7.7397,-7.7398,-7.7406,-7.7411,-7.7493,-7.7531,-7.7563,-7.7601,-7.7589,-7.7619,-7.7641,-7.76,-7.76,-7.7529,-7.7234,-7.716,-7.7411,-7.7409,-7.7407,-7.7406,-7.7405,-7.7741,-7.7659,-7.7787,-7.7821,-7.786,-7.7932,-7.7873,-7.794,-7.7958,-7.8005,-7.7925,-7.7715,-7.7676,-7.765,-7.7588,-7.7935,-7.7935,-7.7935,-7.7935,-7.7935,-7.7912,-7.8033,-7.809,-7.814,-7.81,-7.8246,-7.824,-7.822,-7.8229,-7.8172,-7.8087,-7.8063,-7.8038,-7.8004,-7.7945,-7.8375,-7.8375,-7.8375,-7.8138,-7.8119,-7.8252,-7.8233,-7.8261,-7.8287,-7.8423,-7.849,-7.845,-7.8392,-7.8234,-7.8216,-7.8077,-7.8035,-7.797,-7.7918,-7.7809,0,0]},{"header":{"parameterUnit":"m.s-1","parameterCategory":1,"la1":30.2992,"la2":30.254,"lo1":-89.0895,"lo2":-89.0443,"dy":0.0025,"dx":0.0025,"nx":19,"ny":19,"refTime":"2026-04-07T21:00:00:Z","depth":0,"parameterNumber":3,"parameterNumberName":"V-component_of_WINDS"},"data":[0,0,0,1.4785,1.4784,1.4735,1.4734,1.4656,1.4655,0,0,0,0,0,0,0,0,0,0,0,1.4793,1.4792,1.4785,1.4784,1.4735,1.4734,1.4656,1.4655,0,0,0,0,0,0,0,0,0,0,0,1.4793,1.4792,1.4791,1.4784,1.4735,1.4734,1.4657,1.4698,0,0,0,0,0,0,0,0,0,0,1.4749,1.475,1.4793,1.4791,1.4783,1.4735,1.4734,1.4701,1.4696,1.4673,0,1.4653,0,1.4653,1.4649,1.4649,0,0,0,1.4788,1.4754,1.4747,1.4791,1.4783,1.4735,1.4758,1.4698,1.4693,1.4666,1.4652,1.4649,1.4652,1.4649,1.4648,1.4509,1.4509,0,0,1.479,1.4779,1.4751,1.4743,1.4753,1.4759,1.4756,1.4695,1.4677,1.4652,1.4648,1.4651,1.4648,1.4648,1.451,1.4509,0,0,0,1.4796,1.4781,1.4776,1.4746,1.4739,1.4758,1.4754,1.468,1.468,1.4647,1.465,1.4648,1.4647,1.4511,1.451,1.4458,0,0,0,1.4797,1.4784,1.4777,1.477,1.474,1.4709,1.4741,1.4684,1.4677,1.465,1.4648,1.4646,1.4512,1.4511,1.4461,1.4433,0,0,0,1.4798,1.4784,1.4775,1.4769,1.4748,1.4711,1.4707,1.4683,1.4679,1.4649,1.4646,1.4513,1.4511,1.4464,1.4438,1.4393,0,0,0,1.4795,1.4728,1.4774,1.47,1.4749,1.468,1.4707,1.4656,1.4625,1.4647,1.4512,1.451,1.4465,1.4442,1.4396,1.4351,1.4332,0,0,1.4704,1.4716,1.4674,1.4714,1.4635,1.4689,1.4601,1.4581,1.4587,1.4534,1.4531,1.446,1.4439,1.4394,1.4234,1.4218,0,0,0,1.4641,1.461,1.4592,1.4563,1.4549,1.4534,1.453,1.4523,1.4479,1.4559,1.4433,1.4421,1.4394,1.4373,1.436,1.4338,1.4501,1.4501,1.4501,1.4493,1.4508,1.4438,1.4447,1.4419,1.4417,1.4395,1.4385,1.4405,1.4376,1.4358,1.426,1.4235,1.4225,1.4202,1.4338,1.4338,1.4338,1.4338,1.4358,1.4316,1.435,1.4294,1.4309,1.4262,1.4258,1.4274,1.4231,1.4274,1.4251,1.4294,1.4208,1.4188,1.4334,1.4335,1.4335,1.4336,1.4336,1.4261,1.4243,1.4239,1.4201,1.4169,1.4181,1.4138,1.4154,1.4167,1.4146,1.4129,1.413,1.4131,1.4138,1.4137,1.4137,1.4137,1.4136,1.4136,1.4159,1.4157,1.4121,1.4103,1.4087,1.4069,1.4069,1.4053,1.4039,1.4053,1.4053,1.4075,1.4199,1.4228,1.4131,1.4132,1.4132,1.4133,1.4133,1.4013,1.405,1.3993,1.3979,1.3959,1.3927,1.3949,1.3916,1.3906,1.3884,1.3913,1.4003,1.4015,1.4026,1.405,1.3912,1.3912,1.3912,1.3912,1.3928,1.3939,1.3885,1.386,1.3838,1.3853,1.3787,1.3787,1.3792,1.3786,1.3809,1.3843,1.3853,1.386,1.3874,1.3896,1.3722,1.3722,1.3722,1.3838,1.3847,1.3789,1.3798,1.3785,1.3772,1.3711,1.3678,1.3691,1.3714,1.3781,1.3789,1.3845,1.3863,1.3883,1.3904,1.3946,0,0]}]]